Home   Weather   Salem   Past weeks

Flag for USA Past Weather in Salem, Oregon, USA — Yesterday and Last 2 Weeks

Now
40 °F

Mostly cloudy.


Feels Like: 40 °F
Forecast: 40 / 58 °F
Wind: No wind

Location: McNary Field

Current Time: Apr 28, 2017 at 5:19:38 am

Latest Report: Apr 28, 2017 at 3:56 am


Visibility: 10 mi

Pressure: 30.30 "Hg

Humidity: 89%

Dew Point: 37 °F

Location of SalemLocation

Past Weather in Salem — Graph

°F

Salem Temperature Yesterday

Maximum temperature yesterday: 54 °F (at 4:56 pm)
Minimum temperature yesterday: 42 °F (at 2:56 am)
Average temperature yesterday: 48 °F

High & Low Weather Summary for the Past Weeks

 TemperatureHumidityPressure
High69 °F (Apr 21, 5:56 pm)97% (Apr 21, 7:39 am)30.42 "Hg (Apr 21, 7:39 am)
Low35 °F (Apr 15, 5:56 am)37% (Apr 15, 7:56 pm)29.65 "Hg (Apr 24, 7:36 am)
Average50 °F76%30.01 "Hg
* Reported Apr 13 3:56 am — Apr 28 3:56 am, Salem, Weather by CustomWeather, © 2017

Note: Actual official high and low records may vary slightly from our data, if they occured in-between our weather recording intervals... More about our weather records

Advertising

Salem Weather History for the Previous 24 Hours

Scroll right to see more
 ConditionsComfort  
Time TempWeatherWind HumidityBarometerVisibility
3:56 am
Fri, Apr 28
40 °FMostly cloudy.No wind89%30.30 "Hg10 mi
2:56 am40 °FPassing clouds.3 mph86%30.29 "Hg10 mi
1:56 am41 °FClear.No wind82%30.27 "Hg10 mi
12:56 am43 °FPassing clouds.6 mph79%30.27 "Hg10 mi
11:56 pm
Thu, Apr 27
45 °FPassing clouds.7 mph76%30.25 "Hg10 mi
10:56 pm46 °FOvercast.7 mph73%30.24 "Hg10 mi
9:56 pm47 °FPassing clouds.7 mph71%30.22 "Hg10 mi
8:56 pm48 °FOvercast.9 mph71%30.20 "Hg10 mi
7:56 pm50 °FMostly cloudy.14 mph63%30.18 "Hg10 mi
6:56 pm52 °FMostly cloudy.12 mph59%30.16 "Hg10 mi
5:56 pm53 °FPassing clouds.12 mph56%30.15 "Hg10 mi
4:56 pm54 °FSunny.12 mph57%30.15 "Hg10 mi
3:56 pm52 °FMostly cloudy.14 mph72%30.15 "Hg10 mi
2:56 pm53 °FLight rain. Mostly cloudy.8 mph74%30.14 "Hg10 mi
1:56 pm53 °FLight rain. Mostly cloudy.10 mph72%30.14 "Hg10 mi
12:56 pm53 °FMostly cloudy.7 mph72%30.13 "Hg5 mi
12:04 pm50 °FLight rain. Mostly cloudy.9 mph77%30.14 "Hg6 mi
11:05 am51 °FMostly cloudy.14 mph74%30.15 "Hg10 mi
10:56 am50 °FMostly cloudy.13 mph77%30.15 "Hg10 mi
9:56 am48 °FMostly cloudy.12 mph83%30.15 "Hg10 mi
8:56 am46 °FLight rain. More clouds than sun.12 mph86%30.16 "Hg10 mi
7:56 am45 °FLight rain. Overcast.8 mph90%30.15 "Hg10 mi
6:56 am44 °FLight rain. Mostly cloudy.9 mph89%30.14 "Hg10 mi
5:56 am44 °FMostly cloudy.7 mph85%30.14 "Hg10 mi
Weather by CustomWeather, © 2017

See weather overviewHow to use our weather pages